TIME,DELAY(SENSOR),PRES,T(CTD),SAL,OXYGEN,RAWTEMP,T(OPTODE),TCPHASE,FLUOR,BETA(BETA700),BETA(BETA412),BETA(BETA440),CDOM,C(CSC),ED(ED412.40),ED(ED444.00),ED(ED489.70),ED(ED554.30),LU(LU411.80),LU(LU443.40),LU(LU489.60),LU(LU554.10),COMP,TILTX,TILTX(TILTY),CHECK
1376598893,5809,497.7099914550781000,6.5285000801086430,34.1025009155273440,83.7711410522461000,602.3095092773438000,6.5096359252929690,48.5058403015136700,51,103,85,79,77,15298,2147748982,2147424402,2148007067,2147875163,2147626953,2147075172,2148244644,2147200484,3104,4,13,56740
1376599025,5809,486.7000122070312500,6.6877999305725100,34.0965003967285160,90.6107788085937500,597.3988037109375000,6.6682620048522950,47.6670989990234400,52,102,85,79,77,15298,2147746496,2147424987,2148011611,2147872128,2147626953,2147073792,2148247424,2147197814,2739,4,13,58498
1376599160,5810,475.5199890136719000,6.9019999504089355,34.0931015014648440,96.6500473022461000,590.8145751953125000,6.8805890083312990,46.9094581604003900,51,103,83,77,77,15300,2147747931,2147424521,2148007414,2147871451,2147627154,2147072420,2148246043,2147200173,2119,4,13,6494
1376599303,5810,464.3999938964844000,7.0611000061035160,34.0881004333496100,103.7670974731445300,585.4064941406250000,7.0546879768371580,46.0746498107910160,50,105,89,79,76,15297,2147747465,2147424539,2148007789,2147873097,2147626605,2147070098,2148234907,2147197074,1219,3,13,47045
1376599479,5807,451.0799865722656000,7.3590998649597170,34.0918006896972660,111.0702972412109400,576.8250732421875000,7.3303909301757810,45.1981391906738300,51,103,86,79,76,15300,2147745033,2147424832,2148009453,2147872512,2147624585,2147082880,2148238262,2147201636,2452,4,13,61774
1376599598,5808,439.5799865722656000,7.5434999465942380,34.0895004272460940,116.8037033081054700,570.5333251953125000,7.5321202278137210,44.5318717956543000,52,103,88,79,74,15298,2147743561,2147422994,2148006107,2147871424,2147625325,2147082733,2148240749,2147199021,1920,4,12,10444
1376599697,5809,429.1000061035156000,7.8787999153137210,34.1178016662597660,116.0960998535156200,560.9041748046875000,7.8401741981506350,44.4394493103027340,50,106,88,80,75,15293,2147746980,2147421677,2148009325,2147874742,2147623826,2147073874,2148235538,2147198235,1154,3,13,21917
1376599798,5808,418.1199951171875000,8.3031997680664060,34.1649017333984400,107.8535995483398400,547.3347167968750000,8.2729511260986330,45.0436515808105500,51,104,86,80,76,15294,2147741641,2147423122,2148006052,2147875035,2147619748,2147084150,2148233673,2147198308,901,4,13,51476
1376599908,5807,406.2099914550781000,8.2805995941162110,34.1259002685546900,118.5755004882812500,545.2623291015625000,8.3389129638671880,43.9410400390625000,50,104,84,77,74,15295,2147738240,2147425654,2148008521,2147871853,2147620105,2147083830,2148234642,2147200475,59,3,13,57218
1376600018,5806,394.7999877929687500,8.5913000106811520,34.1203994750976560,127.9531021118164000,537.7169189453125000,8.5787811279296880,42.9315910339355500,50,103,89,80,73,15295,2147737627,2147426404,2148006857,2147872877,2147621092,2147085494,2148230710,2147201782,2366,3,13,14637
1376600147,5807,384.0000000000000000,8.7545003890991210,34.1176986694335940,141.3764953613281200,533.1696166992188000,8.7231216430664060,41.6668281555175800,50,104,87,80,73,15295,2147738678,2147423661,2148008054,2147873755,2147619300,2147085266,2148231972,2147197275,2052,3,13,32714
1376600325,5806,373.2300109863281000,8.8622999191284180,34.1207008361816400,146.2940979003906200,529.3640747070312000,8.8437919616699220,41.1885795593261700,50,104,87,80,73,15296,2147738861,2147424896,2148005412,2147872109,2147618331,2147087972,2148227382,2147201654,1420,3,13,36798
1376600482,5810,361.7500000000000000,9.1164999008178710,34.1216011047363300,149.7993927001953000,521.4498291015625000,9.0943908691406250,40.7628593444824200,50,104,84,80,72,15296,2147740224,2147425627,2148010395,2147874313,2147617764,2147091721,2148230345,2147204105,386,3,13,41642
1376600614,5808,350.3699951171875000,9.5041999816894530,34.1355018615722660,152.6880035400390600,508.6781921386719000,9.4978055953979500,40.3117790222168000,50,104,88,80,73,15294,2147732845,2147424356,2148008676,2147873645,2147615588,2147091236,2148226185,2147205467,3374,3,13,16262
1376600749,5808,339.2500000000000000,9.8077001571655270,34.1335983276367200,159.4481964111328000,497.8449096679687500,9.8390769958496100,39.5939712524414060,49,104,84,81,72,15295,2147733193,2147426093,2148010834,2147874715,2147615305,2147095542,2148228269,2147202806,2128,4,13,11699
1376600892,5810,328.7799987792969000,10.1309003829956050,34.1333999633789060,170.2991027832031200,488.6961975097656000,10.1266498565673830,38.6242980957031250,50,104,86,80,70,15294,2147731117,2147423725,2148006930,2147870390,2147613897,2147095506,2148221833,2147204626,1164,3,13,61371
1376601055,5808,317.2900085449219000,10.7572002410888670,34.1394996643066400,186.3267974853515600,469.0347900390625000,10.7427997589111330,37.1800498962402340,49,107,86,78,69,15294,2147736603,2147425051,2148009179,2147871808,2147608073,2147094226,2148221083,2147204553,1738,3,13,32738
1376601197,5807,306.3200073242187500,11.1391000747680660,34.1445007324218750,190.6938934326172000,455.7417907714844000,11.1580200195312500,36.6739006042480500,49,104,86,79,69,15294,2147731300,2147428726,2148020141,2147874569,2147606793,2147103085,2148220470,2147207277,2089,4,13,33274
1376601360,5807,293.2699890136719000,11.8727998733520500,34.1688003540039060,197.4035034179687500,433.3474121093750000,11.8552303314208980,35.8835411071777340,48,103,85,78,70,15291,2147729755,2147435657,2148021229,2147873819,2147602505,2147113453,2148218925,2147205604,668,4,13,40723
1376601480,5809,281.9700012207031000,12.6906995773315430,34.2113990783691400,200.6190948486328000,405.5997009277344000,12.7154903411865230,35.2439994812011700,49,104,89,80,69,15290,2147728758,2147433270,2148024557,2147874761,2147596553,2147115218,2148220525,2147207195,2763,4,13,2809
1376601593,5808,271.1000061035156000,13.4035997390747070,34.2608985900878900,204.7758026123047000,383.8086853027344000,13.3886003494262700,34.6552314758300800,49,105,86,79,67,15289,2147725796,2147434002,2148025664,2147874395,2147593773,2147124105,2148215232,2147208713,2993,3,13,50860
1376601714,5808,260.0000000000000000,13.8857002258300780,34.3016014099121100,205.4429931640625000,367.1449890136719000,13.9020395278930660,34.3597488403320300,48,103,85,80,67,15290,2147724617,2147437705,2148038701,2147871689,2147593371,2147129554,2148217947,2147205888,1365,3,14,51444
1376601824,5808,249.6000061035156200,14.4884004592895500,34.3891983032226560,211.8188018798828000,348.0946044921875000,14.4878301620483400,33.7045898437500000,47,102,89,79,65,15290,2147719972,2147446006,2148057636,2147872374,2147593216,2147138962,2148224365,2147206363,1332,3,13,50996
1376601948,5810,238.4400024414062500,14.9348001480102540,34.4282989501953100,215.3912048339843800,332.8976135253906000,14.9543304443359380,33.2795410156250000,48,102,88,80,66,15287,2147723529,2147463853,2148103149,2147873691,2147584694,2147152256,2148235876,2147211574,424,3,14,36392
1376602080,5808,227.5000000000000000,15.6976995468139650,34.5077018737793000,214.2368927001953000,308.8114929199219000,15.6924695968627930,32.9903182983398440,49,101,83,80,65,15285,2147721792,2147471853,2148106587,2147874267,2147584694,2147165257,2148235483,2147212068,2799,3,13,59253
1376602215,5808,216.7100067138672000,16.7562999725341800,34.6403999328613300,218.1378021240234400,275.8317871093750000,16.7013092041015620,32.3042411804199200,49,103,87,81,64,15287,2147725129,2147490340,2148144228,2147873910,2147583369,2147184987,2148255232,2147213302,3203,3,14,31823
1376602369,5809,205.8099975585937500,17.6361999511718750,34.7356986999511700,214.0460968017578000,245.1123962402343800,17.6398200988769530,32.0923500061035160,51,102,86,80,64,15281,2147747584,2147619254,2148421961,2147874020,2147589019,2147271040,2148395062,2147230308,2820,3,15,61046
1376602515,5808,198.1199951171875000,18.6016006469726560,34.8754005432128900,214.2709045410156200,214.4333038330078000,18.5767307281494140,31.6546592712402340,51,103,88,80,63,15279,2147777746,2147766857,2148719844,2147874724,2147597019,2147357732,2148524306,2147237010,2118,2,15,63525
1376602614,5805,194.9400024414062500,18.9932003021240230,34.9338989257812500,217.0673065185547000,201.4087066650390600,18.9745502471923830,31.3273792266845700,50,101,87,79,63,15277,2147743414,2147591049,2148321901,2147875675,2147584978,2147263689,2148332150,2147227437,1764,2,14,45843
1376602757,5807,191.0500030517578000,19.2691993713378900,34.9646987915039060,218.4290008544922000,192.7651062011718800,19.2386207580566400,31.1383209228515620,54,105,87,80,63,15272,2147743552,2147609243,2148351442,2147872621,2147582162,2147280182,2148346048,2147222838,507,2,14,19090
1376602869,5808,186.5700073242187500,19.6142005920410160,35.0177993774414060,217.9969940185547000,180.9246063232422000,19.6004791259765620,31.0010700225830080,55,104,85,79,63,15267,2147729426,2147528201,2148184649,2147872347,2147572589,2147234176,2148260763,2147219382,3085,2,15,44044
1376602946,5805,182.5899963378906200,19.8353996276855470,35.0399017333984400,217.0858001708984400,173.2653961181640600,19.8346500396728500,30.9458503723144530,60,106,87,80,62,15265,2147716973,2147486902,2148093476,2147872438,2147566482,2147207012,2148210066,2147216758,3281,2,15,35646
1376603023,5805,178.6600036621093800,19.9883003234863280,35.0424003601074200,214.8699035644531200,168.6428070068359400,19.9760208129882800,31.0008201599121100,68,110,86,80,62,15258,2147716580,2147480905,2148081307,2147875062,2147566838,2147203675,2148206665,2147214445,2036,2,15,29098
1376603100,5809,174.5800018310547000,20.0897998809814450,35.0541000366210940,212.8639984130859400,164.5325927734375000,20.1017398834228500,31.0524101257324220,67,109,90,81,62,15255,2147718034,2147501193,2148122816,2147871981,2147567789,2147218176,2148224256,2147217609,1258,2,15,33158
1376603179,5809,170.2299957275390600,20.3215999603271500,35.0787010192871100,212.9541931152343800,157.3027038574218800,20.3229694366455080,30.9507598876953120,73,111,86,80,63,15248,2147744082,2147563017,2148230921,2147870262,2147577060,2147255762,2148276077,2147218761,299,2,15,37782
1376603256,5812,166.1499938964843800,20.5207996368408200,35.0943984985351560,212.9160003662109400,151.5325012207031200,20.4995899200439450,30.8757305145263670,73,114,86,81,62,15245,2147774025,2147651318,2148379218,2147874358,2147583744,2147306624,2148347026,2147224146,3183,2,15,7558
1376603333,5812,162.3899993896484400,20.6357002258300780,35.1094017028808600,213.9741058349609400,149.8977050781250000,20.5496501922607420,30.7975997924804700,78,114,88,81,62,15246,2147828946,2147796242,2148631661,2147877769,2147609206,2147378605,2148457462,2147237220,2411,2,15,43290
1376603421,5809,158.7599945068359400,20.7150001525878900,35.1211013793945300,214.5191040039062500,144.8569946289062500,20.7040195465087900,30.7015991210937500,83,110,89,80,63,15239,2147858313,2147854025,2148722953,2147877348,2147619346,2147415277,2148494784,2147240137,2348,2,15,38560
1376603533,5811,155.0000000000000000,20.7334995269775400,35.1236000061035160,215.1941070556640600,143.9651031494140600,20.7313308715820300,30.6544208526611330,80,114,86,81,63,15241,2147824978,2147746176,2148512694,2147874733,2147608612,2147356836,2148394313,2147232457,1576,2,16,12817
1376603687,5807,151.3600006103515600,20.8691005706787100,35.1370010375976560,216.0451965332031200,139.6878051757812500,20.8623790740966800,30.5531692504882800,84,113,88,81,62,15231,2147924169,2147943680,2148811648,2147875044,2147644288,2147459977,2148530422,2147243282,993,2,15,61492
1376603849,5810,146.6100006103515600,21.1490001678466800,35.1659011840820300,216.8777008056640600,130.5590972900390600,21.1421909332275400,30.3891296386718750,91,115,85,82,61,15227,2148041856,2148117833,2149039442,2147880228,2147689033,2147551552,2148623552,2147251465,2866,2,15,39352
1376603948,5808,142.4100036621093800,21.4223995208740230,35.1974983215332000,218.7102050781250000,121.0078964233398400,21.4351902008056640,30.1691799163818360,97,120,86,81,62,15215,2148113545,2148205174,2149128073,2147878272,2147716946,2147579885,2148653860,2147255853,2643,2,15,39983
1376604036,5809,138.7200012207031200,21.8134002685546880,35.2443008422851560,222.2239990234375000,109.5718994140625000,21.7863407135009770,29.8422508239746100,111,118,92,81,60,15196,2148192246,2148299474,2149242304,2147882468,2147746349,2147626688,2148696676,2147259940,1946,2,15,24074
1376604142,5808,134.2299957275390600,22.0578002929687500,35.2766990661621100,228.0366058349609400,100.8982009887695300,22.0529403686523440,29.4437694549560550,118,122,91,81,60,15182,2148375405,2148583908,2149610441,2147885878,2147819876,2147753225,2148834477,2147274194,1281,2,16,24010
1376604219,5807,130.6300048828125000,22.2782001495361330,35.3078994750976560,231.3544006347656200,93.8484497070312500,22.2698001861572270,29.1940498352050780,126,120,86,83,60,15173,2148586038,2148895981,2150004736,2147885120,2147903945,2147886646,2148981705,2147289270,1334,1,16,45986
1376604318,5807,127.0500030517578100,22.5345993041992200,35.3328018188476560,235.8878936767578000,85.8235778808593800,22.5168800354003900,28.8791999816894530,135,118,88,82,60,15171,2148982290,2149480822,2150732973,2147893321,2148061357,2148148278,2149250843,2147310857,1383,2,15,47856
1376604453,5809,123.2300033569336000,22.6802997589111330,35.3455009460449200,239.5522003173828000,81.4384536743164000,22.6519908905029300,28.6555900573730470,115,117,87,81,59,15182,2149601481,2150343030,2151721572,2147904841,2148328338,2148544274,2149648228,2147346459,1398,2,16,40887
1376604574,5815,118.9300003051757800,22.8043003082275400,35.3443984985351560,241.9391021728515600,77.1343688964843800,22.7846794128417970,28.4934806823730470,101,118,86,82,59,15178,2150021504,2150830363,2152126144,2147909046,2148536320,2148805010,2149861394,2147369197,1801,2,15,9667
1376604684,5812,114.7200012207031200,22.9575004577636720,35.3415985107421900,242.9526062011718800,72.3041229248046900,22.9336700439453120,28.3877696990966800,99,122,90,84,58,15173,2151152768,2152378267,2153874660,2147936658,2149059209,2149582948,2150649883,2147436900,1233,1,16,38142
1376604779,5808,110.3499984741211000,23.1727008819580080,35.3333015441894500,245.5209960937500000,65.0423202514648400,23.1578407287597660,28.1830596923828120,87,127,90,84,59,15169,2152397732,2153961453,2155537161,2147966089,2149675373,2150455652,2151461083,2147510729,650,1,15,26293
1376604856,5808,106.7600021362304700,23.2602005004882800,35.3224983215332000,246.5935974121093800,61.4552917480468750,23.2686595916748050,28.0916309356689450,85,128,92,85,58,15163,2154258733,2156348288,2158090093,2148008530,2150606921,2151764470,2152716553,2147620434,2958,1,15,57779
1376604955,5809,102.9700012207031200,23.4974002838134770,35.3033981323242200,247.1584930419922000,54.9435005187988300,23.4699707031250000,27.9861698150634770,83,126,89,85,58,15161,2164663844,2170702738,2174907629,2148350656,2155612736,2159283264,2160331364,2148292178,2697,2,16,18778
1376605101,5806,99.3799972534179700,23.6467990875244140,35.3073005676269500,246.7326965332031200,49.7554588317871100,23.6305007934570300,27.9403800964355470,80,127,94,86,58,15155,2165788772,2171386240,2174665170,2148372032,2156588681,2160307629,2160866304,2148340397,659,1,16,35209
1376605200,5805,97.4300003051757800,23.7255992889404300,35.3083992004394500,247.9118041992187500,47.4706497192382800,23.7012290954589840,27.8609600067138670,77,132,91,85,58,15148,2162705554,2166788992,2168960201,2148256256,2155269366,2158148041,2158483940,2148128246,842,2,16,18282
1376605321,5809,95.4199981689453100,23.7625007629394530,35.3087997436523440,248.5962066650390600,45.8055191040039060,23.7527999877929700,27.8109092712402340,76,128,91,84,57,15141,2169842112,2176239844,2179720484,2148549357,2159109467,2163643730,2163755108,2148589449,859,1,16,45280
1376605416,5807,92.7099990844726600,23.7891998291015620,35.3086013793945300,249.5036010742187500,44.7695312500000000,23.7848892211914060,27.7589302062988280,75,129,95,87,58,15134,2170460022,2176265883,2179024530,2148591881,2159760100,2164143533,2163818212,2148600768,870,2,16,26196
1376605471,5808,90.1200027465820300,23.8190994262695300,35.3070983886718750,249.7196960449218800,43.7970695495605500,23.8150100708007800,27.7379093170166000,75,129,94,86,58,15127,2172284672,2178068004,2180562642,2148695881,2160939218,2165451218,2164758089,2148692608,858,1,16,46079
1376605526,5811,87.1900024414062500,23.8540992736816400,35.3092994689941400,249.9371032714843800,42.7058982849121100,23.8488197326660160,27.7150592803955080,78,136,92,86,58,15124,2173725814,2179171392,2181198390,2148786907,2161976420,2166494902,2165409261,2148767369,575,1,16,63155
1376605581,5816,84.1500015258789000,23.9465007781982420,35.3111000061035160,249.8520050048828000,39.5850296020507800,23.9455509185791000,27.6803398132324220,78,132,90,85,58,15123,2184493824,2192251538,2195245897,2149377792,2168252132,2174798500,2172906742,2149466944,3581,1,16,32818
1376605636,5810,81.2799987792968800,24.0207996368408200,35.3073997497558600,250.2154998779297000,37.4337806701660160,24.0122509002685550,27.6382007598876950,78,131,91,86,58,15120,2183195904,2189778276,2191764141,2149372516,2167742390,2173554852,2171307145,2149350939,3564,1,16,13392
1376605693,5807,78.6900024414062500,24.0753002166748050,35.2971992492675800,250.1080932617187500,35.6057891845703100,24.0689506530761720,27.6203098297119140,77,132,91,87,57,15104,2180833782,2186094208,2187173869,2149274660,2166647524,2171550756,2169116772,2149166857,3285,1,16,46459
1376605748,5809,76.5299987792968800,24.1319007873535160,35.2938995361328100,250.1540069580078000,33.6822090148925800,24.1286296844482420,27.5948600769042970,74,130,93,85,58,15110,2181771629,2186565906,2187181833,2149359030,2167370176,2172081033,2169274971,2149210048,2820,1,16,13761
1376605803,5810,74.8899993896484400,24.2234001159667970,35.2835006713867200,250.0762023925781200,30.9678096771240230,24.2128791809082030,27.5648002624511720,72,129,93,86,56,15110,2183087131,2187501056,2187708955,2149430482,2168366500,2172999396,2169802148,2149261705,2320,1,16,28157
1376605891,5808,73.7399978637695300,24.3264999389648440,35.2741012573242200,250.1656951904297000,27.6196594238281250,24.3168506622314450,27.5199909210205080,72,130,92,85,53,15114,2189080000,2193935881,2193740443,2149761828,2172194285,2177440347,2173268425,2149605366,1831,1,16,9943
1376606097,5809,71.2900009155273400,24.5648002624511720,35.2605018615722660,250.1481933593750000,19.9330997467041000,24.5557708740234380,27.4266395568847660,70,133,93,87,56,15098,2204009910,2208115474,2205741732,2150518838,2182208621,2187935798,2180549275,2150357165,1428,1,16,29523
1376606174,5805,69.0999984741211000,24.6644992828369140,35.2641983032226560,250.5715026855468800,16.5760097503662100,24.6602096557617200,27.3676605224609380,70,132,92,87,59,15105,2230152685,2236253376,2233392356,2152453357,2199315547,2207788571,2196389851,2152003958,998,1,16,5199
1376606240,5810,66.8300018310546900,24.8435001373291000,35.2640991210937500,250.7220001220703000,11.8733196258544920,24.8066196441650400,27.3039894104003900,68,132,94,87,59,15099,2252270829,2259449609,2256225801,2154363382,2214104182,2224369133,2209204909,2153433984,806,1,16,18676
1376606295,5810,65.1299972534179700,24.8924007415771500,35.2640991210937500,251.0050964355468800,9.4749116897583000,24.8813400268554700,27.2627696990966800,67,130,93,86,57,15103,2237576274,2241508562,2236791158,2153274816,2206858148,2214579053,2200490322,2152516470,1348,1,16,58494
1376606379,5808,62.0099983215332000,25.0743999481201170,35.2557983398437500,251.2268066406250000,3.4131560325622560,25.0703296661376950,27.1796703338623050,64,132,95,87,58,15105,2234349504,2236378678,2230996160,2153457216,2206322770,2212252891,2197598326,2152379931,760,1,16,2469
1376606434,5809,59.5999984741210940,25.1361999511718750,35.2454986572265600,251.6497955322265600,1.4601680040359497,25.1312694549560550,27.1379909515380860,65,131,96,87,54,15102,2270040045,2273664118,2267908745,2157407241,2233179739,2242034980,2220729901,2155043136,127,1,16,31917
1376606489,5807,57.2900009155273440,25.1919002532959000,35.2401008605957000,251.7445068359375000,-0.9544640779495239,25.2066402435302730,27.1047401428222660,66,131,94,90,59,15101,2305556845,2310298998,2304140443,2161797650,2260002084,2271431323,2243368630,2157740397,3386,1,16,11649
1376606544,5808,55.3100013732910160,25.2817993164062500,35.2375984191894500,252.0697937011718800,-2.8273971080780030,25.2651195526123050,27.0685100555419920,63,131,95,87,52,14992,2325209810,2330375488,2323551222,2164712868,2275057344,2287066048,2254933193,2159272731,2875,2,16,30647
1376606599,5809,53.8199996948242200,25.5321998596191400,35.2379989624023440,251.0229949951172000,-9.1772136688232420,25.4635601043701170,27.0353298187255860,63,135,93,86,55,15090,2300367936,2300951680,2292067346,2161799798,2263846464,2272068333,2241441627,2157682285,3324,1,16,38462
1376606683,5805,52.1300010681152340,25.7907009124755860,35.2443008422851560,249.8574981689453000,-17.4242591857910160,25.7216606140136720,26.9845104217529300,62,134,93,90,55,15087,2298911844,2298708589,2289571465,2162497929,2262645888,2268748242,2237653604,2157522816,237,1,16,1485
1376606771,5808,50.4599990844726560,26.2299003601074220,35.2610015869140600,246.4243011474609400,-32.1405105590820300,26.1833000183105470,26.9519996643066400,62,135,96,87,54,15094,2323240640,2323306413,2313472502,2166291017,2285899748,2292196489,2254542162,2159702354,115,1,16,58249
1376607031,5808,48.1100006103515600,26.8504009246826170,35.2981986999511700,237.7409057617187500,-52.2913589477539060,26.8178005218505860,27.0851001739501950,58,131,91,85,58,15109,2220269147,2216094345,2208465033,2153853824,2208035190,2206394230,2188715766,2151837010,640,1,16,45227
1376607119,5810,46.4900016784668000,26.9423999786376950,35.3054008483886700,235.8134002685547000,-55.7523117065429700,26.9270706176757800,27.1287193298339840,58,131,93,86,55,15107,2265216841,2261987346,2253084032,2160569764,2247597824,2247492672,2218959762,2155743616,3433,1,16,7545
1376607292,5809,44.0000000000000000,27.1018009185791000,35.3121986389160160,232.8455963134765600,-61.5225601196289060,27.1094398498535160,27.1919593811035160,57,126,91,86,55,15104,2260201938,2256386688,2247492443,2160923922,2247655186,2245394614,2216438528,2155602377,3260,1,16,40725
1376607369,5807,42.4900016784668000,27.3801994323730470,35.3199005126953100,228.7404022216797000,-69.5761489868164000,27.3644008636474600,27.2812194824218750,54,122,89,84,55,15123,2245113837,2241135798,2232856539,2158840402,2237074688,2232970889,2206523529,2154380964,2772,0,16,64184
1376607596,5807,39.3199996948242200,27.3932991027832030,35.3227005004882800,225.6800994873047000,-70.4480133056640600,27.3920307159423830,27.4127597808837900,53,117,91,83,56,15145,2230044781,2226101760,2219577417,2159339666,2234441700,2226798180,2200079981,2153835995,2249,1,16,64760
1376607651,5808,36.7700004577636700,27.3939990997314450,35.3218994140625000,225.4248962402343800,-70.5024871826171900,27.3937492370605470,27.4241008758544920,52,119,90,85,52,15142,2239714870,2235613632,2229045321,2162701467,2248549165,2238495478,2207095204,2155084489,2088,0,16,55015
1376607706,5814,33.9099998474121100,27.3960990905761720,35.3216018676757800,225.5471954345703000,-70.5606079101562500,27.3955993652343750,27.4176597595214840,52,118,90,84,54,15146,2252096521,2247939081,2241743835,2167813330,2268811309,2255989001,2218050861,2156977243,1822,1,17,38955
1376607761,5811,30.8999996185302730,27.3952007293701170,35.3227996826171900,225.5294036865234400,-70.6129302978515600,27.3972492218017580,27.4179191589355470,52,117,87,85,58,15142,2246614665,2241653312,2235283748,2167802587,2266531483,2251629860,2213973440,2156741385,1696,1,16,17654